Wind_Speed
25 26 27 28 28 28 28 29 29 30 31 32 32 33 34 34 34 34 34 34 35 35 35 35 36 36 36 37 37 38 38 38 38 39 39 39 40 40 40 40 40 40 40
27 28 28 28 29 29 29 30 31 31 32 33 33 34 34 34 35 35 35 35 35 35 35 36 36 37 37 37 37 38 38 39 39 39 39 40 40 40 40 40 40 41 41
28 29 29 29 29 30 31 32 32 33 33 34 34 34 35 35 35 35 36 36 36 36 36 36 37 37 38 38 38 38 39 39 39 40 40 40 40 40 41 41 41 42 42
29 29 30 30 31 31 32 33 33 33 34 34 34 35 35 36 36 36 36 36 36 36 37 37 38 38 38 39 39 39 39 40 40 40 40 41 41 41 41 41 42 42 42
30 30 31 31 32 32 33 34 34 34 34 34 35 36 36 36 36 36 36 36 37 37 37 38 38 39 39 39 39 40 40 40 41 41 41 42 42 42 42 42 42 43 43
30 31 31 32 32 33 33 34 34 34 35 35 36 36 36 36 36 36 37 37 37 37 38 38 39 39 40 40 40 41 41 41 41 42 42 43 43 43 43 43 43 44 44
31 32 32 32 33 33 34 34 35 35 35 36 36 36 36 36 36 37 37 37 38 38 38 39 40 40 41 41 41 41 41 42 42 42 43 43 43 43 44 44 44 45 45
32 33 33 33 34 34 34 34 35 35 36 36 36 36 36 36 37 37 37 38 38 38 39 40 40 41 41 41 42 42 42 42 43 43 43 43 44 44 45 45 45 46 46
33 33 33 34 34 35 35 35 35 36 36 36 36 36 36 36 36 37 37 38 39 39 40 41 41 41 41 42 42 42 43 43 44 44 44 45 46 46 46 47 47 47 48
33 34 34 34 35 35 35 36 36 36 36 36 36 36 37 37 37 37 38 38 39 40 41 41 41 41 42 42 43 43 44 44 45 46 46 47 47 48 48 49 49 49 49
34 34 34 35 35 35 36 36 36 36 36 36 36 36 37 38 38 39 39 39 40 40 41 41 42 43 43 44 44 45 45 46 47 48 49 49 50 50 51 51 51 51 51
34 34 35 35 35 35 36 36 35 35 35 36 36 37 37 38 38 39 39 40 40 41 42 43 44 45 45 46 47 47 48 49 50 51 52 52 52 53 53 53 53 54 54
34 35 35 35 35 35 35 35 35 35 35 36 36 37 38 38 39 40 40 41 41 42 43 44 45 46 48 48 49 50 50 51 52 54 54 54 55 56 55 55 56 56 57
34 35 36 36 35 35 34 34 35 35 36 36 37 37 38 38 39 40 41 42 43 43 44 45 47 48 49 50 51 52 53 54 55 56 56 57 57 57 58 58 59 60 60
34 35 35 35 35 35 34 35 35 35 36 36 37 38 38 39 40 41 42 44 45 45 46 47 49 50 51 52 53 54 55 56 57 57 58 59 59 60 61 61 62 62 62
34 35 35 35 35 35 35 35 35 36 36 36 37 38 39 40 41 42 44 45 46 48 49 50 51 53 54 55 56 57 58 58 59 59 61 62 62 62 63 63 62 62 62
34 34 35 35 35 35 35 35 35 36 37 37 38 39 40 41 43 44 45 46 48 50 51 51 53 55 56 57 58 59 60 61 62 63 64 64 64 64 64 63 62 62 63
35 35 35 35 35 35 35 35 36 37 37 38 39 40 42 43 44 45 47 48 50 51 53 53 55 56 58 59 61 62 63 64 64 65 65 65 64 64 63 62 62 63 63
34 35 35 35 35 35 36 36 37 37 38 39 40 41 43 44 45 46 48 49 51 53 55 56 57 58 60 61 62 63 63 64 65 65 64 64 64 63 63 63 63 62 62
34 35 35 35 35 36 36 37 37 38 39 40 41 42 44 45 46 47 49 51 53 55 57 58 59 60 61 61 62 62 63 64 64 64 64 64 63 63 62 61 61 60 59
34 35 35 35 36 36 36 37 38 39 40 41 42 43 44 45 47 49 50 52 54 56 58 59 60 61 61 61 62 63 64 63 62 62 62 61 61 60 59 58 58 57 57
34 35 35 35 36 36 37 37 38 39 41 42 43 44 45 46 48 50 52 54 56 58 59 60 60 61 61 62 63 64 64 62 61 61 60 59 58 57 57 56 55 55 53
34 35 35 35 36 36 37 38 39 40 41 42 43 44 45 47 49 51 53 55 57 58 60 61 61 61 62 63 64 64 63 62 60 59 58 57 57 56 55 53 52 51 50
34 35 35 35 36 37 37 39 40 41 42 42 44 45 46 48 51 52 54 56 58 60 61 61 61 62 62 63 64 63 61 60 59 58 58 57 55 54 52 50 49 48 47
35 35 35 36 36 37 38 39 40 41 42 43 45 46 48 50 52 54 55 57 59 60 60 60 61 62 63 64 63 61 60 59 58 58 57 56 53 51 49 48 46 44 43
35 35 35 36 37 38 39 40 41 42 43 44 46 47 49 51 53 54 56 58 59 59 59 60 62 63 63 62 61 60 60 59 58 56 54 52 50 48 46 45 44 42 40
Wind_Direction
294 295 296 296 296 296 296 296 296 297 298 299 299 300 300 299 300 300 300 300 299 299 298 298 297 296 295 294 294 294 293 292 291 290 289 288 286 285 283 282 280 279 278
294 296 296 296 296 296 296 296 297 298 299 299 300 300 300 300 300 300 301 300 300 299 299 298 298 297 296 296 295 294 294 293 292 291 290 289 287 286 284 283 282 280 279
294 295 295 296 296 296 297 297 298 298 299 299 300 300 300 301 301 301 301 300 300 299 299 299 298 297 297 297 296 295 294 293 293 292 291 290 288 287 285 284 283 281 279
294 295 295 296 296 296 297 298 298 299 299 300 301 301 301 301 301 301 301 301 300 300 299 298 298 298 298 297 296 296 295 294 294 293 292 290 289 288 286 285 284 282 280
293 294 295 296 296 296 297 298 298 299 299 300 301 301 302 301 301 302 302 302 301 300 299 299 298 299 298 298 298 297 296 296 295 293 292 291 290 289 287 285 284 283 281
293 294 295 295 296 296 297 297 298 299 299 300 301 302 302 302 302 303 302 302 301 301 300 300 300 299 299 299 298 298 297 297 296 295 294 293 291 290 288 286 285 283 282
292 293 294 295 295 296 296 297 298 299 300 300 301 302 302 302 302 302 302 302 301 301 301 300 300 300 300 299 299 299 298 297 296 295 295 293 292 290 289 288 286 284 282
292 293 293 294 295 296 296 297 298 299 299 300 301 302 302 302 302 302 302 301 301 301 301 301 301 301 301 300 300 299 299 298 297 297 296 294 293 291 290 288 287 285 284
291 292 293 293 294 295 296 296 297 298 299 299 300 301 302 302 301 302 301 301 301 301 301 301 302 302 301 301 300 300 299 299 298 297 296 295 294 293 291 290 288 286 285
290 291 293 293 294 294 295 296 297 297 298 299 300 301 301 302 302 302 301 301 302 302 302 302 302 302 302 301 301 300 300 299 298 298 297 296 295 294 292 291 289 287 286
289 291 292 293 293 294 295 295 296 297 297 298 299 300 301 301 301 302 302 302 303 303 303 303 303 303 302 302 301 300 300 299 298 298 298 297 295 294 293 291 289 288 286
289 291 292 293 293 294 295 295 295 296 297 298 299 300 300 301 301 302 302 302 302 303 303 303 303 303 302 302 301 301 300 299 299 299 298 297 296 295 293 291 290 288 287
288 290 292 292 293 294 295 295 295 295 296 298 298 299 300 301 301 302 302 302 302 302 302 303 303 302 302 302 301 301 301 300 299 299 298 298 296 295 293 292 291 289 288
287 290 291 292 292 293 294 294 295 296 297 297 298 299 300 300 301 301 302 302 302 302 302 302 302 302 302 301 301 301 301 300 300 299 299 298 297 296 294 293 292 290 289
287 289 290 291 292 293 293 294 295 296 297 297 298 299 300 300 301 301 302 303 303 303 303 303 302 302 302 302 302 301 301 300 300 300 299 299 297 296 295 294 293 291 289
287 289 290 290 292 292 292 293 294 296 297 298 298 299 300 300 301 302 302 303 303 303 304 304 303 303 303 303 302 302 301 301 301 300 300 299 298 297 296 295 293 292 290
286 287 288 290 290 291 292 293 295 296 297 297 298 299 300 301 302 302 302 303 303 303 304 304 304 304 303 303 303 303 302 301 301 301 300 300 299 298 297 295 294 293 292
286 287 288 289 290 291 292 294 295 296 297 297 298 299 300 301 302 303 303 303 303 304 305 305 304 304 304 304 304 303 303 302 302 302 302 301 300 299 298 297 296 295 294
286 287 288 289 290 291 292 294 295 296 297 298 299 300 301 302 302 303 303 304 304 305 305 305 305 305 305 304 304 304 304 304 304 303 303 302 301 300 299 298 297 296 294
286 287 288 289 289 291 292 294 295 296 297 298 299 300 301 302 302 302 304 305 305 305 305 306 306 306 305 305 305 305 305 305 304 304 303 303 302 301 300 299 298 297 296
286 287 288 288 289 291 292 294 295 297 298 299 299 300 301 302 302 303 304 305 306 306 306 307 307 306 306 306 306 306 306 306 305 305 304 304 303 303 302 301 300 299 298
285 287 288 288 289 291 292 294 295 296 298 299 300 301 302 303 303 304 305 306 307 307 308 308 307 307 307 307 307 308 308 306 306 306 305 304 304 304 303 302 301 300 299
285 286 287 288 289 291 292 294 295 297 298 299 300 301 302 303 304 305 306 307 307 308 309 308 308 308 308 308 308 308 308 307 307 306 306 305 304 304 304 303 303 302 301
285 286 287 288 290 292 294 295 296 298 299 300 301 302 303 304 305 306 307 308 308 309 309 309 309 309 309 309 309 308 308 307 307 307 307 306 306 305 305 304 304 304 303
285 286 287 289 291 293 295 296 297 299 300 301 302 303 304 305 306 307 308 309 310 310 310 309 310 310 310 310 309 309 308 308 308 307 307 306 305 305 305 305 305 305 305
285 286 287 289 291 293 295 296 298 300 301 303 304 305 306 306 307 308 309 310 311 311 310 310 310 310 310 310 309 309 309 309 309 308 307 306 305 305 306 306 305 305 305
Height
5842 5840 5838 5836 5834 5831 5829 5827 5824 5822 5819 5816 5813 5811 5808 5804 5801 5798 5795 5792 5789 5786 5783 5780 5776 5773 5770 5767 5765 5762 5759 5756 5753 5750 5748 5746 5743 5741 5739 5737 5736 5734 5733
5837 5835 5833 5831 5828 5826 5824 5821 5819 5816 5813 5810 5807 5804 5801 5798 5795 5792 5788 5785 5782 5779 5776 5772 5769 5766 5763 5760 5757 5754 5751 5748 5745 5742 5739 5737 5734 5732 5730 5728 5726 5724 5723
5831 5829 5827 5825 5823 5820 5818 5815 5813 5810 5807 5804 5801 5798 5795 5792 5788 5785 5782 5778 5775 5772 5769 5765 5762 5759 5755 5752 5749 5746 5743 5739 5736 5733 5731 5728 5725 5723 5720 5718 5716 5714 5713
5826 5824 5821 5819 5817 5815 5812 5809 5806 5804 5801 5798 5795 5792 5788 5785 5781 5778 5775 5771 5768 5765 5761 5758 5754 5751 5748 5744 5741 5738 5734 5731 5728 5725 5722 5719 5716 5713 5711 5708 5706 5704 5702
5820 5818 5815 5813 5811 5808 5806 5803 5800 5797 5794 5791 5788 5785 5781 5778 5774 5771 5767 5764 5761 5757 5754 5750 5747 5743 5740 5736 5732 5729 5725 5722 5719 5715 5712 5709 5706 5703 5701 5698 5696 5694 5692
5814 5811 5809 5807 5804 5802 5799 5797 5794 5791 5788 5784 5781 5778 5774 5771 5767 5764 5760 5757 5753 5750 5746 5742 5739 5735 5731 5728 5724 5720 5717 5713 5709 5706 5703 5699 5696 5693 5690 5688 5685 5683 5681
5807 5805 5803 5801 5798 5795 5793 5790 5787 5784 5781 5777 5774 5771 5767 5764 5760 5756 5753 5749 5745 5742 5738 5734 5730 5727 5723 5719 5715 5711 5707 5704 5700 5696 5693 5689 5686 5683 5680 5677 5674 5671 5669
5800 5798 5796 5794 5791 5789 5786 5783 5780 5777 5774 5770 5767 5764 5761 5758 5753 5749 5745 5741 5738 5734 5730 5726 5722 5718 5714 5710 5706 5702 5698 5694 5690 5686 5683 5679 5675 5672 5669 5666 5663 5660 5657
5793 5791 5789 5787 5784 5782 5779 5776 5773 5770 5767 5763 5760 5756 5753 5750 5746 5743 5738 5734 5730 5726 5722 5718 5714 5710 5705 5701 5697 5693 5689 5685 5680 5676 5672 5668 5665 5661 5658 5654 5651 5648 5645
5787 5784 5782 5780 5777 5774 5772 5769 5765 5762 5759 5756 5752 5749 5745 5741 5738 5735 5731 5726 5722 5718 5714 5709 5705 5701 5696 5692 5688 5683 5679 5675 5670 5666 5662 5657 5653 5649 5646 5642 5638 5635 5632
5779 5777 5775 5772 5770 5767 5764 5761 5758 5755 5752 5748 5745 5741 5738 5734 5730 5726 5723 5719 5714 5709 5705 5700 5696 5691 5687 5682 5678 5673 5669 5664 5659 5655 5650 5646 5641 5637 5633 5629 5625 5621 5618
5772 5770 5767 5765 5762 5759 5756 5753 5750 5747 5744 5741 5737 5734 5730 5726 5722 5718 5714 5710 5706 5701 5696 5691 5686 5682 5677 5672 5667 5663 5658 5653 5648 5643 5638 5633 5628 5623 5619 5615 5610 5607 5603
5764 5762 5760 5757 5754 5752 5749 5745 5742 5739 5736 5733 5729 5726 5722 5718 5714 5710 5705 5701 5697 5693 5687 5682 5677 5672 5666 5661 5656 5651 5646 5641 5635 5630 5625 5619 5614 5609 5604 5599 5595 5591 5586
5757 5754 5752 5749 5746 5744 5741 5738 5735 5732 5728 5725 5721 5718 5714 5710 5705 5701 5696 5692 5688 5683 5678 5673 5667 5661 5656 5650 5645 5639 5634 5628 5622 5616 5610 5604 5599 5593 5588 5583 5578 5573 5569
5749 5746 5744 5741 5738 5736 5733 5730 5727 5724 5720 5717 5713 5709 5705 5701 5697 5692 5687 5682 5678 5673 5669 5663 5657 5650 5644 5638 5633 5626 5620 5614 5608 5601 5595 5589 5583 5577 5571 5565 5559 5554 5549
5741 5738 5736 5733 5731 5728 5725 5722 5719 5716 5712 5709 5705 5701 5697 5692 5688 5683 5678 5673 5667 5662 5657 5652 5645 5639 5632 5626 5619 5613 5606 5599 5593 5586 5579 5572 5566 5559 5553 5546 5541 5535 5530
5732 5730 5728 5725 5722 5719 5717 5714 5711 5707 5704 5700 5696 5692 5688 5683 5679 5674 5668 5663 5657 5651 5646 5641 5633 5626 5619 5612 5605 5598 5591 5584 5577 5569 5562 5554 5547 5541 5534 5527 5521 5516 5510
5724 5722 5720 5717 5714 5711 5708 5705 5702 5699 5695 5691 5687 5683 5678 5674 5669 5664 5658 5653 5647 5640 5634 5628 5621 5614 5606 5598 5591 5583 5575 5567 5559 5552 5544 5536 5529 5521 5515 5508 5502 5496 5490
5716 5714 5711 5709 5706 5703 5700 5697 5693 5690 5686 5682 5678 5674 5669 5664 5659 5653 5648 5642 5635 5629 5622 5615 5608 5600 5593 5584 5576 5568 5559 5551 5542 5534 5526 5518 5511 5503 5496 5489 5482 5476 5470
5707 5705 5703 5700 5697 5694 5691 5688 5685 5681 5677 5673 5669 5664 5659 5654 5649 5643 5637 5630 5624 5617 5609 5602 5595 5587 5578 5569 5561 5553 5544 5535 5526 5517 5509 5501 5493 5485 5478 5471 5464 5458 5452
5699 5696 5694 5691 5688 5686 5682 5679 5676 5672 5668 5663 5659 5654 5649 5644 5638 5632 5626 5619 5612 5604 5596 5589 5581 5572 5564 5555 5546 5537 5528 5519 5511 5501 5493 5485 5477 5469 5461 5454 5447 5441 5435
5690 5687 5685 5682 5680 5677 5673 5670 5666 5662 5658 5654 5649 5644 5639 5633 5627 5621 5614 5607 5599 5591 5583 5575 5566 5558 5549 5540 5531 5521 5512 5504 5496 5488 5478 5470 5461 5454 5446 5439 5432 5425 5419
5681 5678 5676 5674 5671 5668 5664 5661 5657 5653 5648 5644 5639 5634 5629 5622 5616 5609 5602 5594 5586 5577 5569 5560 5552 5543 5534 5526 5517 5507 5497 5487 5479 5471 5463 5456 5447 5439 5431 5424 5417 5411 5404
5672 5669 5667 5664 5662 5658 5655 5651 5647 5643 5638 5634 5629 5624 5618 5611 5605 5598 5590 5582 5574 5565 5556 5547 5538 5529 5519 5510 5500 5491 5482 5473 5465 5456 5447 5440 5433 5425 5417 5411 5404 5398 5391
5663 5660 5658 5655 5652 5649 5645 5642 5637 5633 5628 5623 5618 5613 5607 5600 5594 5586 5579 5571 5562 5552 5542 5532 5523 5514 5504 5494 5485 5476 5467 5458 5451 5443 5433 5425 5418 5411 5404 5398 5391 5385 5379
5653 5651 5648 5646 5643 5639 5636 5632 5627 5623 5619 5614 5608 5602 5595 5589 5581 5573 5565 5557 5548 5539 5529 5520 5510 5500 5490 5480 5470 5461 5452 5443 5435 5428 5420 5411 5404 5398 5393 5386 5380 5374 5368